Year,Month,Day,Hour,Minute,Value (Times are PST for temperature in C)
2012,05,25,00,00,9.70
2012,05,25,00,01,9.60
2012,05,25,00,02,9.60
2012,05,25,00,03,9.60
2012,05,25,00,04,9.50
2012,05,25,00,05,9.50
2012,05,25,00,06,9.50
2012,05,25,00,07,9.40
2012,05,25,00,08,9.40
2012,05,25,00,09,9.40
2012,05,25,00,10,9.30
2012,05,25,00,11,9.30
2012,05,25,00,12,9.30
2012,05,25,00,13,9.30
2012,05,25,00,14,9.30
2012,05,25,00,15,9.30
2012,05,25,00,16,9.30
2012,05,25,00,17,9.30
2012,05,25,00,18,9.20
2012,05,25,00,19,9.20
2012,05,25,00,20,9.20
2012,05,25,00,21,9.20
2012,05,25,00,22,9.20
2012,05,25,00,23,9.20
2012,05,25,00,24,9.20
2012,05,25,00,25,9.20
2012,05,25,00,26,9.20
2012,05,25,00,27,9.20
2012,05,25,00,28,9.20
2012,05,25,00,29,9.20
2012,05,25,00,30,9.20
2012,05,25,00,31,9.20
2012,05,25,00,32,9.20
2012,05,25,00,33,9.20
2012,05,25,00,34,9.20
2012,05,25,00,35,9.20
2012,05,25,00,36,9.20
2012,05,25,00,37,9.20
2012,05,25,00,38,9.20
2012,05,25,00,39,9.20
2012,05,25,00,40,9.10
2012,05,25,00,41,9.10
2012,05,25,00,42,9.10
2012,05,25,00,43,9.00
2012,05,25,00,44,9.00
2012,05,25,00,45,9.00
2012,05,25,00,46,9.00
2012,05,25,00,47,9.10
2012,05,25,00,48,9.10
2012,05,25,00,49,9.10
2012,05,25,00,50,9.00
2012,05,25,00,51,9.00
2012,05,25,00,52,9.00
2012,05,25,00,53,9.00
2012,05,25,00,54,9.00
2012,05,25,00,55,9.00
2012,05,25,00,56,9.00
2012,05,25,00,57,9.10
2012,05,25,00,58,9.10
2012,05,25,00,59,9.10
2012,05,25,01,00,9.00
2012,05,25,01,01,9.00
2012,05,25,01,02,9.00
2012,05,25,01,03,9.00
2012,05,25,01,04,9.00
2012,05,25,01,05,9.10
2012,05,25,01,06,9.10
2012,05,25,01,07,9.10
2012,05,25,01,08,9.10
2012,05,25,01,09,9.10
2012,05,25,01,10,9.10
2012,05,25,01,11,9.00
2012,05,25,01,12,9.00
2012,05,25,01,13,8.90
2012,05,25,01,14,8.90
2012,05,25,01,15,8.80
2012,05,25,01,16,8.80
2012,05,25,01,17,8.80
2012,05,25,01,18,8.70
2012,05,25,01,19,8.70
2012,05,25,01,20,8.70
2012,05,25,01,21,8.70
2012,05,25,01,22,8.60
2012,05,25,01,23,8.50
2012,05,25,01,24,8.50
2012,05,25,01,25,8.40
2012,05,25,01,26,8.40
2012,05,25,01,27,8.50
2012,05,25,01,28,8.50
2012,05,25,01,29,8.60
2012,05,25,01,30,8.60
2012,05,25,01,31,8.50
2012,05,25,01,32,8.50
2012,05,25,01,33,8.60
2012,05,25,01,34,8.60
2012,05,25,01,35,8.60
2012,05,25,01,36,8.60
2012,05,25,01,37,8.60
2012,05,25,01,38,8.50
2012,05,25,01,39,8.50
2012,05,25,01,40,8.50
2012,05,25,01,41,8.50
2012,05,25,01,42,8.50
2012,05,25,01,43,8.50
2012,05,25,01,44,8.40
2012,05,25,01,45,8.40
2012,05,25,01,46,8.50
2012,05,25,01,47,8.50
2012,05,25,01,48,8.50
2012,05,25,01,49,8.50
2012,05,25,01,50,8.40
2012,05,25,01,51,8.40
2012,05,25,01,52,8.40
2012,05,25,01,53,8.40
2012,05,25,01,54,8.40
2012,05,25,01,55,8.40
2012,05,25,01,56,8.40
2012,05,25,01,57,8.40
2012,05,25,01,58,8.40
2012,05,25,01,59,8.30
2012,05,25,02,00,8.30
2012,05,25,02,01,8.30
2012,05,25,02,02,8.30
2012,05,25,02,03,8.40
2012,05,25,02,04,8.40
2012,05,25,02,05,8.40
2012,05,25,02,06,8.40
2012,05,25,02,07,8.30
2012,05,25,02,08,8.30
2012,05,25,02,09,8.30
2012,05,25,02,10,8.30
2012,05,25,02,11,8.20
2012,05,25,02,12,8.20
2012,05,25,02,13,8.20
2012,05,25,02,14,8.30
2012,05,25,02,15,8.30
2012,05,25,02,16,8.20
2012,05,25,02,17,8.20
2012,05,25,02,18,8.20
2012,05,25,02,19,8.20
2012,05,25,02,20,8.20
2012,05,25,02,21,8.20
2012,05,25,02,22,8.20
2012,05,25,02,23,8.20
2012,05,25,02,24,8.20
2012,05,25,02,25,8.20
2012,05,25,02,26,8.20
2012,05,25,02,27,8.10
2012,05,25,02,28,8.10
2012,05,25,02,29,8.10
2012,05,25,02,30,8.10
2012,05,25,02,31,8.10
2012,05,25,02,32,8.10
2012,05,25,02,33,8.00
2012,05,25,02,34,8.00
2012,05,25,02,35,7.90
2012,05,25,02,36,7.90
2012,05,25,02,37,7.90
2012,05,25,02,38,7.90
2012,05,25,02,39,7.90
2012,05,25,02,40,7.90
2012,05,25,02,41,7.80
2012,05,25,02,42,7.80
2012,05,25,02,43,7.80
2012,05,25,02,44,7.70
2012,05,25,02,45,7.70
2012,05,25,02,46,7.60
2012,05,25,02,47,7.60
2012,05,25,02,48,7.60
2012,05,25,02,49,7.50
2012,05,25,02,50,7.50
2012,05,25,02,51,7.50
2012,05,25,02,52,7.50
2012,05,25,02,53,7.50
2012,05,25,02,54,7.40
2012,05,25,02,55,7.40
2012,05,25,02,56,7.30
2012,05,25,02,57,7.30
2012,05,25,02,58,7.30
2012,05,25,02,59,7.30
2012,05,25,03,00,7.30
2012,05,25,03,01,7.30
2012,05,25,03,02,7.30
2012,05,25,03,03,7.20
2012,05,25,03,04,7.20
2012,05,25,03,05,7.20
2012,05,25,03,06,7.20
2012,05,25,03,07,7.20
2012,05,25,03,08,7.20
2012,05,25,03,09,7.20
2012,05,25,03,10,7.20
2012,05,25,03,11,7.10
2012,05,25,03,12,7.10
2012,05,25,03,13,7.10
2012,05,25,03,14,7.10
2012,05,25,03,15,7.10
2012,05,25,03,16,7.10
2012,05,25,03,17,7.20
2012,05,25,03,18,7.20
2012,05,25,03,19,7.20
2012,05,25,03,20,7.30
2012,05,25,03,21,7.30
2012,05,25,03,22,7.30
2012,05,25,03,23,7.30
2012,05,25,03,24,7.30
2012,05,25,03,25,7.30
2012,05,25,03,26,7.30
2012,05,25,03,27,7.30
2012,05,25,03,28,7.30
2012,05,25,03,29,7.30
2012,05,25,03,30,7.30
2012,05,25,03,31,7.30
2012,05,25,03,32,7.30
2012,05,25,03,33,7.30
2012,05,25,03,34,7.20
2012,05,25,03,35,7.20
2012,05,25,03,36,7.20
2012,05,25,03,37,7.10
2012,05,25,03,38,7.10
2012,05,25,03,39,7.10
2012,05,25,03,40,7.00
2012,05,25,03,41,7.00
2012,05,25,03,42,7.00
2012,05,25,03,43,6.90
2012,05,25,03,44,6.90
2012,05,25,03,45,6.80
2012,05,25,03,46,6.80
2012,05,25,03,47,6.80
2012,05,25,03,48,6.80
2012,05,25,03,49,6.80
2012,05,25,03,50,6.80
2012,05,25,03,51,6.80
2012,05,25,03,52,6.80
2012,05,25,03,53,6.80
2012,05,25,03,54,6.80
2012,05,25,03,55,6.80
2012,05,25,03,56,6.80
2012,05,25,03,57,6.80
2012,05,25,03,58,6.80
2012,05,25,03,59,6.90
2012,05,25,04,00,6.90
2012,05,25,04,01,7.00
2012,05,25,04,02,7.00
2012,05,25,04,03,7.00
2012,05,25,04,04,7.10
2012,05,25,04,05,7.00
2012,05,25,04,06,7.00
2012,05,25,04,07,7.00
2012,05,25,04,08,7.00
2012,05,25,04,09,7.00
2012,05,25,04,10,6.90
2012,05,25,04,11,6.90
2012,05,25,04,12,6.90
2012,05,25,04,13,6.80
2012,05,25,04,14,6.80
2012,05,25,04,15,6.80
2012,05,25,04,16,6.80
2012,05,25,04,17,6.80
2012,05,25,04,18,6.80
2012,05,25,04,19,6.80
2012,05,25,04,20,6.80
2012,05,25,04,21,6.80
2012,05,25,04,22,6.70
2012,05,25,04,23,6.70
2012,05,25,04,24,6.70
2012,05,25,04,25,6.70
2012,05,25,04,26,6.60
2012,05,25,04,27,6.60
2012,05,25,04,28,6.50
2012,05,25,04,29,6.40
2012,05,25,04,30,6.40
2012,05,25,04,31,6.40
2012,05,25,04,32,6.30
2012,05,25,04,33,6.30
2012,05,25,04,34,6.20
2012,05,25,04,35,6.20
2012,05,25,04,36,6.20
2012,05,25,04,37,6.20
2012,05,25,04,38,6.20
2012,05,25,04,39,6.20
2012,05,25,04,40,6.30
2012,05,25,04,41,6.30
2012,05,25,04,42,6.40
2012,05,25,04,43,6.40
2012,05,25,04,44,6.40
2012,05,25,04,45,6.40
2012,05,25,04,46,6.50
2012,05,25,04,47,6.60
2012,05,25,04,48,6.60
2012,05,25,04,49,6.60
2012,05,25,04,50,6.60
2012,05,25,04,51,6.60
2012,05,25,04,52,6.60
2012,05,25,04,53,6.60
2012,05,25,04,54,6.60
2012,05,25,04,55,6.60
2012,05,25,04,56,6.60
2012,05,25,04,57,6.60
2012,05,25,04,58,6.60
2012,05,25,04,59,6.60
2012,05,25,05,00,6.60
2012,05,25,05,01,6.50
2012,05,25,05,02,6.40
2012,05,25,05,03,6.40
2012,05,25,05,04,6.40
2012,05,25,05,05,6.40
2012,05,25,05,06,6.30
2012,05,25,05,07,6.30
2012,05,25,05,08,6.30
2012,05,25,05,09,6.30
2012,05,25,05,10,6.30
2012,05,25,05,11,6.30
2012,05,25,05,12,6.30
2012,05,25,05,13,6.30
2012,05,25,05,14,6.30
2012,05,25,05,15,6.30
2012,05,25,05,16,6.30
2012,05,25,05,17,6.30
2012,05,25,05,18,6.30
2012,05,25,05,19,6.30
2012,05,25,05,20,6.30
2012,05,25,05,21,6.30
2012,05,25,05,22,6.30
2012,05,25,05,23,6.30
2012,05,25,05,24,6.30
2012,05,25,05,25,6.30
2012,05,25,05,26,6.40
2012,05,25,05,27,6.40
2012,05,25,05,28,6.40
2012,05,25,05,29,6.40
2012,05,25,05,30,6.40
2012,05,25,05,31,6.40
2012,05,25,05,32,6.40
2012,05,25,05,33,6.40
2012,05,25,05,34,6.30
2012,05,25,05,35,6.30
2012,05,25,05,36,6.30
2012,05,25,05,37,6.30
2012,05,25,05,38,6.20
2012,05,25,05,39,6.20
2012,05,25,05,40,6.30
2012,05,25,05,41,6.30
2012,05,25,05,42,6.40
2012,05,25,05,43,6.40
2012,05,25,05,44,6.50
2012,05,25,05,45,6.60
2012,05,25,05,46,6.60
2012,05,25,05,47,6.60
2012,05,25,05,48,6.60
2012,05,25,05,49,6.60
2012,05,25,05,50,6.60
2012,05,25,05,51,6.60
2012,05,25,05,52,6.60
2012,05,25,05,53,6.60
2012,05,25,05,54,6.50
2012,05,25,05,55,6.40
2012,05,25,05,56,6.40
2012,05,25,05,57,6.30
2012,05,25,05,58,6.30
2012,05,25,05,59,6.20
2012,05,25,06,00,6.20
2012,05,25,06,01,6.20
2012,05,25,06,02,6.30
2012,05,25,06,03,6.30
2012,05,25,06,04,6.40
2012,05,25,06,05,6.40
2012,05,25,06,06,6.40
2012,05,25,06,07,6.40
2012,05,25,06,08,6.40
2012,05,25,06,09,6.40
2012,05,25,06,10,6.40
2012,05,25,06,11,6.40
2012,05,25,06,12,6.40
2012,05,25,06,13,6.40
2012,05,25,06,14,6.40
2012,05,25,06,15,6.50
2012,05,25,06,16,6.60
2012,05,25,06,17,6.60
2012,05,25,06,18,6.60
2012,05,25,06,19,6.70
2012,05,25,06,20,6.70
2012,05,25,06,21,6.70
2012,05,25,06,22,6.70
2012,05,25,06,23,6.80
2012,05,25,06,24,6.80
2012,05,25,06,25,6.80
2012,05,25,06,26,6.80
2012,05,25,06,27,6.80
2012,05,25,06,28,6.90
2012,05,25,06,29,6.90
2012,05,25,06,30,6.90
2012,05,25,06,31,6.90
2012,05,25,06,32,7.00
2012,05,25,06,33,7.00
2012,05,25,06,34,7.00
2012,05,25,06,35,7.00
2012,05,25,06,36,7.10
2012,05,25,06,37,7.10
2012,05,25,06,38,7.10
2012,05,25,06,39,7.10
2012,05,25,06,40,7.10
2012,05,25,06,41,7.10
2012,05,25,06,42,7.20
2012,05,25,06,43,7.30
2012,05,25,06,44,7.30
2012,05,25,06,45,7.30
2012,05,25,06,46,7.40
2012,05,25,06,47,7.40
2012,05,25,06,48,7.40
2012,05,25,06,49,7.50
2012,05,25,06,50,7.50
2012,05,25,06,51,7.50
2012,05,25,06,52,7.50
2012,05,25,06,53,7.50
2012,05,25,06,54,7.50
2012,05,25,06,55,7.60
2012,05,25,06,56,7.60
2012,05,25,06,57,7.70
2012,05,25,06,58,7.70
2012,05,25,06,59,7.70
2012,05,25,07,00,7.80
2012,05,25,07,01,7.80
2012,05,25,07,02,7.80
2012,05,25,07,03,7.90
2012,05,25,07,04,7.90
2012,05,25,07,05,8.00
2012,05,25,07,06,8.00
2012,05,25,07,07,8.10
2012,05,25,07,08,8.10
2012,05,25,07,09,8.10
2012,05,25,07,10,8.10
2012,05,25,07,11,8.10
2012,05,25,07,12,8.10
2012,05,25,07,13,8.20
2012,05,25,07,14,8.20
2012,05,25,07,15,8.20
2012,05,25,07,16,8.20
2012,05,25,07,17,8.20
2012,05,25,07,18,8.30
2012,05,25,07,19,8.30
2012,05,25,07,20,8.30
2012,05,25,07,21,8.40
2012,05,25,07,22,8.40
2012,05,25,07,23,8.50
2012,05,25,07,24,8.50
2012,05,25,07,25,8.60
2012,05,25,07,26,8.80
2012,05,25,07,27,8.90
2012,05,25,07,28,9.10
2012,05,25,07,29,9.20
2012,05,25,07,30,9.40
2012,05,25,07,31,9.50
2012,05,25,07,32,9.70
2012,05,25,07,33,9.80
2012,05,25,07,34,10.00
2012,05,25,07,35,10.10
2012,05,25,07,36,10.20
2012,05,25,07,37,10.30
2012,05,25,07,38,10.30
2012,05,25,07,39,10.40
2012,05,25,07,40,10.50
2012,05,25,07,41,10.60
2012,05,25,07,42,10.60
2012,05,25,07,43,10.70
2012,05,25,07,44,10.70
2012,05,25,07,45,10.90
2012,05,25,07,46,11.00
2012,05,25,07,47,11.20
2012,05,25,07,48,11.40
2012,05,25,07,49,11.50
2012,05,25,07,50,11.60
2012,05,25,07,51,11.80
2012,05,25,07,52,11.90
2012,05,25,07,53,12.00
2012,05,25,07,54,12.10
2012,05,25,07,55,12.10
2012,05,25,07,56,12.20
2012,05,25,07,57,12.20
2012,05,25,07,58,12.20
2012,05,25,07,59,12.20
2012,05,25,08,00,12.20
2012,05,25,08,01,12.30
2012,05,25,08,02,12.30
2012,05,25,08,03,12.30
2012,05,25,08,04,12.40
2012,05,25,08,05,12.40
2012,05,25,08,06,12.50
2012,05,25,08,07,12.60
2012,05,25,08,08,12.60
2012,05,25,08,09,12.70
2012,05,25,08,10,12.70
2012,05,25,08,11,12.70
2012,05,25,08,12,12.80
2012,05,25,08,13,12.80
2012,05,25,08,14,12.80
2012,05,25,08,15,12.90
2012,05,25,08,16,12.90
2012,05,25,08,17,13.00
2012,05,25,08,18,13.00
2012,05,25,08,19,13.10
2012,05,25,08,20,13.10
2012,05,25,08,21,13.20
2012,05,25,08,22,13.20
2012,05,25,08,23,13.30
2012,05,25,08,24,13.30
2012,05,25,08,25,13.30
2012,05,25,08,26,13.40
2012,05,25,08,27,13.50
2012,05,25,08,28,13.50
2012,05,25,08,29,13.50
2012,05,25,08,30,13.60
2012,05,25,08,31,13.70
2012,05,25,08,32,13.70
2012,05,25,08,33,13.70
2012,05,25,08,34,13.80
2012,05,25,08,35,13.90
2012,05,25,08,36,14.00
2012,05,25,08,37,14.10
2012,05,25,08,38,14.20
2012,05,25,08,39,14.20
2012,05,25,08,40,14.30
2012,05,25,08,41,14.30
2012,05,25,08,42,14.30
2012,05,25,08,43,14.30
2012,05,25,08,44,14.30
2012,05,25,08,45,14.30
2012,05,25,08,46,14.30
2012,05,25,08,47,14.40
2012,05,25,08,48,14.40
2012,05,25,08,49,14.40
2012,05,25,08,50,14.40
2012,05,25,08,51,14.50
2012,05,25,08,52,14.50
2012,05,25,08,53,14.50
2012,05,25,08,54,14.60
2012,05,25,08,55,14.60
2012,05,25,08,56,14.60
2012,05,25,08,57,14.70
2012,05,25,08,58,14.70
2012,05,25,08,59,14.80
2012,05,25,09,00,14.80
2012,05,25,09,01,14.80
2012,05,25,09,02,14.80
2012,05,25,09,03,14.80
2012,05,25,09,04,14.80
2012,05,25,09,05,14.80
2012,05,25,09,06,14.80
2012,05,25,09,07,14.90
2012,05,25,09,08,14.80
2012,05,25,09,09,14.80
2012,05,25,09,10,14.80
2012,05,25,09,11,14.80
2012,05,25,09,12,14.90
2012,05,25,09,13,14.90
2012,05,25,09,14,14.90
2012,05,25,09,15,14.90
2012,05,25,09,16,14.90
2012,05,25,09,17,14.90
2012,05,25,09,18,15.00
2012,05,25,09,19,15.00
2012,05,25,09,20,15.00
2012,05,25,09,21,15.00
2012,05,25,09,22,15.00
2012,05,25,09,23,15.10
2012,05,25,09,24,15.10
2012,05,25,09,25,15.10
2012,05,25,09,26,15.10
2012,05,25,09,27,15.10
2012,05,25,09,28,15.10
2012,05,25,09,29,15.10
2012,05,25,09,30,15.10
2012,05,25,09,31,15.20
2012,05,25,09,32,15.20
2012,05,25,09,33,15.30
2012,05,25,09,34,15.30
2012,05,25,09,35,15.30
2012,05,25,09,36,15.30
2012,05,25,09,37,15.30
2012,05,25,09,38,15.20
2012,05,25,09,39,15.20
2012,05,25,09,40,15.20
2012,05,25,09,41,15.30
2012,05,25,09,42,15.30
2012,05,25,09,43,15.40
2012,05,25,09,44,15.30
2012,05,25,09,45,15.40
2012,05,25,09,46,15.40
2012,05,25,09,47,15.50
2012,05,25,09,48,15.50
2012,05,25,09,49,15.50
2012,05,25,09,50,15.60
2012,05,25,09,51,15.70
2012,05,25,09,52,15.70
2012,05,25,09,53,15.70
2012,05,25,09,54,15.70
2012,05,25,09,55,15.70
2012,05,25,09,56,15.80
2012,05,25,09,57,15.80
2012,05,25,09,58,15.80
2012,05,25,09,59,15.80
2012,05,25,10,00,15.80
2012,05,25,10,01,15.80
2012,05,25,10,02,15.80
2012,05,25,10,03,15.80
2012,05,25,10,04,15.80
2012,05,25,10,05,15.80
2012,05,25,10,06,15.80
2012,05,25,10,07,15.80
2012,05,25,10,08,15.80
2012,05,25,10,09,15.80
2012,05,25,10,10,15.80
2012,05,25,10,11,15.70
2012,05,25,10,12,15.80
2012,05,25,10,13,15.80
2012,05,25,10,14,15.90
2012,05,25,10,15,16.00
2012,05,25,10,16,16.10
2012,05,25,10,17,16.20
2012,05,25,10,18,16.30
2012,05,25,10,19,16.30
2012,05,25,10,20,16.50
2012,05,25,10,21,16.60
2012,05,25,10,22,16.80
2012,05,25,10,23,16.90
2012,05,25,10,24,16.90
2012,05,25,10,25,17.00
2012,05,25,10,26,16.90
2012,05,25,10,27,16.80
2012,05,25,10,28,16.70
2012,05,25,10,29,16.60
2012,05,25,10,30,16.50
2012,05,25,10,31,16.40
2012,05,25,10,32,16.30
2012,05,25,10,33,16.30
2012,05,25,10,34,16.30
2012,05,25,10,35,16.20
2012,05,25,10,36,16.20
2012,05,25,10,37,16.20
2012,05,25,10,38,16.20
2012,05,25,10,39,16.10
2012,05,25,10,40,16.10
2012,05,25,10,41,16.10
2012,05,25,10,42,16.10
2012,05,25,10,43,16.20
2012,05,25,10,44,16.20
2012,05,25,10,45,16.30
2012,05,25,10,46,16.40
2012,05,25,10,47,16.60
2012,05,25,10,48,16.70
2012,05,25,10,49,16.80
2012,05,25,10,50,16.90
2012,05,25,10,51,17.00
2012,05,25,10,52,17.20
2012,05,25,10,53,17.40
2012,05,25,10,54,17.60
2012,05,25,10,55,17.80
2012,05,25,10,56,18.00
2012,05,25,10,57,18.10
2012,05,25,10,58,18.10
2012,05,25,10,59,18.10
2012,05,25,11,00,18.10
2012,05,25,11,01,18.00
2012,05,25,11,02,17.90
2012,05,25,11,03,17.90
2012,05,25,11,04,17.90
2012,05,25,11,05,17.90
2012,05,25,11,06,17.80
2012,05,25,11,07,17.70
2012,05,25,11,08,17.50
2012,05,25,11,09,17.40
2012,05,25,11,10,17.30
2012,05,25,11,11,17.20
2012,05,25,11,12,17.20
2012,05,25,11,13,17.20
2012,05,25,11,14,17.10
2012,05,25,11,15,17.10
2012,05,25,11,16,17.20
2012,05,25,11,17,17.30
2012,05,25,11,18,17.30
2012,05,25,11,19,17.30
2012,05,25,11,20,17.50
2012,05,25,11,21,17.60
2012,05,25,11,22,17.80
2012,05,25,11,23,18.00
2012,05,25,11,24,18.30
2012,05,25,11,25,18.50
2012,05,25,11,26,18.80
2012,05,25,11,27,18.60
2012,05,25,11,28,18.20
2012,05,25,11,29,17.90
2012,05,25,11,30,17.70
2012,05,25,11,31,17.50
2012,05,25,11,32,17.40
2012,05,25,11,33,17.40
2012,05,25,11,34,17.50
2012,05,25,11,35,17.50
2012,05,25,11,36,17.70
2012,05,25,11,37,17.60
2012,05,25,11,38,17.60
2012,05,25,11,39,17.50
2012,05,25,11,40,17.50
2012,05,25,11,41,17.50
2012,05,25,11,42,17.50
2012,05,25,11,43,17.50
2012,05,25,11,44,17.50
2012,05,25,11,45,17.60
2012,05,25,11,46,17.80
2012,05,25,11,47,18.00
2012,05,25,11,48,18.30
2012,05,25,11,49,18.50
2012,05,25,11,50,18.70
2012,05,25,11,51,18.90
2012,05,25,11,52,19.00
2012,05,25,11,53,19.10
2012,05,25,11,54,19.20
2012,05,25,11,55,19.20
2012,05,25,11,56,19.20
2012,05,25,11,57,19.20
2012,05,25,11,58,19.30
2012,05,25,11,59,19.40
2012,05,25,12,00,19.50
2012,05,25,12,01,19.50
2012,05,25,12,02,19.50
2012,05,25,12,03,19.40
2012,05,25,12,04,19.40
2012,05,25,12,05,19.50
2012,05,25,12,06,19.50
2012,05,25,12,07,19.40
2012,05,25,12,08,19.20
2012,05,25,12,09,19.00
2012,05,25,12,10,18.60
2012,05,25,12,11,18.30
2012,05,25,12,12,18.00
2012,05,25,12,13,17.90
2012,05,25,12,14,17.80
2012,05,25,12,15,17.90
2012,05,25,12,16,17.90
2012,05,25,12,17,17.80
2012,05,25,12,18,17.50
2012,05,25,12,19,17.30
2012,05,25,12,20,17.10
2012,05,25,12,21,17.20
2012,05,25,12,22,17.30
2012,05,25,12,23,17.30
2012,05,25,12,24,17.30
2012,05,25,12,25,17.40
2012,05,25,12,26,17.40
2012,05,25,12,27,17.50
2012,05,25,12,28,17.60
2012,05,25,12,29,17.70
2012,05,25,12,30,17.70
2012,05,25,12,31,17.70
2012,05,25,12,32,17.80
2012,05,25,12,33,17.80
2012,05,25,12,34,17.70
2012,05,25,12,35,17.60
2012,05,25,12,36,17.60
2012,05,25,12,37,17.70
2012,05,25,12,38,17.80
2012,05,25,12,39,17.90
2012,05,25,12,40,18.00
2012,05,25,12,41,18.20
2012,05,25,12,42,18.40
2012,05,25,12,43,18.50
2012,05,25,12,44,18.50
2012,05,25,12,45,18.60
2012,05,25,12,46,18.70
2012,05,25,12,47,18.80
2012,05,25,12,48,18.80
2012,05,25,12,49,18.70
2012,05,25,12,50,18.70
2012,05,25,12,51,18.70
2012,05,25,12,52,18.70
2012,05,25,12,53,18.80
2012,05,25,12,54,18.90
2012,05,25,12,55,18.90
2012,05,25,12,56,18.90
2012,05,25,12,57,18.90
2012,05,25,12,58,18.90
2012,05,25,12,59,19.00
2012,05,25,13,00,18.90
2012,05,25,13,01,18.90
2012,05,25,13,02,18.90
2012,05,25,13,03,18.90
2012,05,25,13,04,18.80
2012,05,25,13,05,18.80
2012,05,25,13,06,18.60
2012,05,25,13,07,18.70
2012,05,25,13,08,18.70
2012,05,25,13,09,18.70
2012,05,25,13,10,18.90
2012,05,25,13,11,19.00
2012,05,25,13,12,19.20
2012,05,25,13,13,19.30
2012,05,25,13,14,19.40
2012,05,25,13,15,19.40
2012,05,25,13,16,19.30
2012,05,25,13,17,19.30
2012,05,25,13,18,19.20
2012,05,25,13,19,19.10
2012,05,25,13,20,19.20
2012,05,25,13,21,19.20
2012,05,25,13,22,19.30
2012,05,25,13,23,19.30
2012,05,25,13,24,19.30
2012,05,25,13,25,19.20
2012,05,25,13,26,19.20
2012,05,25,13,27,19.30
2012,05,25,13,28,19.40
2012,05,25,13,29,19.50
2012,05,25,13,30,19.50
2012,05,25,13,31,19.60
2012,05,25,13,32,19.70
2012,05,25,13,33,19.80
2012,05,25,13,34,19.70
2012,05,25,13,35,19.70
2012,05,25,13,36,19.70
2012,05,25,13,37,19.70
2012,05,25,13,38,19.80
2012,05,25,13,39,19.90
2012,05,25,13,40,20.10
2012,05,25,13,41,20.20
2012,05,25,13,42,20.20
2012,05,25,13,43,20.20
2012,05,25,13,44,20.20
2012,05,25,13,45,20.20
2012,05,25,13,46,20.30
2012,05,25,13,47,20.50
2012,05,25,13,48,20.70
2012,05,25,13,49,21.00
2012,05,25,13,50,21.10
2012,05,25,13,51,21.30
2012,05,25,13,52,21.40
2012,05,25,13,53,21.40
2012,05,25,13,54,21.60
2012,05,25,13,55,21.80
2012,05,25,13,56,22.00
2012,05,25,13,57,22.10
2012,05,25,13,58,22.20
2012,05,25,13,59,22.20
2012,05,25,14,00,22.30
2012,05,25,14,01,22.20
2012,05,25,14,02,22.30
2012,05,25,14,03,22.30
2012,05,25,14,04,22.40
2012,05,25,14,05,22.40
2012,05,25,14,06,22.40
2012,05,25,14,07,22.40
2012,05,25,14,08,22.40
2012,05,25,14,09,22.30
2012,05,25,14,10,22.20
2012,05,25,14,11,22.10
2012,05,25,14,12,22.20
2012,05,25,14,13,22.10
2012,05,25,14,14,21.90
2012,05,25,14,15,21.90
2012,05,25,14,16,21.90
2012,05,25,14,17,22.00
2012,05,25,14,18,22.10
2012,05,25,14,19,22.10
2012,05,25,14,20,22.30
2012,05,25,14,21,22.30
2012,05,25,14,22,22.40
2012,05,25,14,23,22.40
2012,05,25,14,24,22.30
2012,05,25,14,25,22.20
2012,05,25,14,26,22.20
2012,05,25,14,27,22.20
2012,05,25,14,28,22.30
2012,05,25,14,29,22.40
2012,05,25,14,30,22.50
2012,05,25,14,31,22.60
2012,05,25,14,32,22.60
2012,05,25,14,33,22.50
2012,05,25,14,34,22.50
2012,05,25,14,35,22.60
2012,05,25,14,36,22.60
2012,05,25,14,37,22.80
2012,05,25,14,38,22.90
2012,05,25,14,39,22.90
2012,05,25,14,40,22.80
2012,05,25,14,41,22.70
2012,05,25,14,42,22.60
2012,05,25,14,43,22.60
2012,05,25,14,44,22.60
2012,05,25,14,45,22.40
2012,05,25,14,46,22.40
2012,05,25,14,47,22.30
2012,05,25,14,48,22.30
2012,05,25,14,49,22.40
2012,05,25,14,50,22.50
2012,05,25,14,51,22.30
2012,05,25,14,52,22.30
2012,05,25,14,53,22.30
2012,05,25,14,54,22.30
2012,05,25,14,55,22.50
2012,05,25,14,56,22.60
2012,05,25,14,57,22.80
2012,05,25,14,58,22.90
2012,05,25,14,59,23.00
2012,05,25,15,00,23.00
2012,05,25,15,01,22.90
2012,05,25,15,02,22.80
2012,05,25,15,03,22.80
2012,05,25,15,04,22.80
2012,05,25,15,05,22.80
2012,05,25,15,06,22.90
2012,05,25,15,07,23.00
2012,05,25,15,08,23.10
2012,05,25,15,09,23.20
2012,05,25,15,10,23.30
2012,05,25,15,11,23.40
2012,05,25,15,12,23.50
2012,05,25,15,13,23.40
2012,05,25,15,14,23.40
2012,05,25,15,15,23.30
2012,05,25,15,16,23.30
2012,05,25,15,17,23.30
2012,05,25,15,18,23.30
2012,05,25,15,19,23.30
2012,05,25,15,20,23.20
2012,05,25,15,21,23.10
2012,05,25,15,22,22.90
2012,05,25,15,23,22.90
2012,05,25,15,24,22.90
2012,05,25,15,25,22.90
2012,05,25,15,26,22.90
2012,05,25,15,27,22.90
2012,05,25,15,28,22.90
2012,05,25,15,29,22.90
2012,05,25,15,30,22.90
2012,05,25,15,31,22.90
2012,05,25,15,32,22.90
2012,05,25,15,33,22.90
2012,05,25,15,34,23.00
2012,05,25,15,35,23.10
2012,05,25,15,36,23.10
2012,05,25,15,37,23.10
2012,05,25,15,38,23.10
2012,05,25,15,39,23.10
2012,05,25,15,40,23.10
2012,05,25,15,41,23.20
2012,05,25,15,42,23.20
2012,05,25,15,43,23.30
2012,05,25,15,44,23.30
2012,05,25,15,45,23.30
2012,05,25,15,46,23.30
2012,05,25,15,47,23.30
2012,05,25,15,48,23.20
2012,05,25,15,49,23.20
2012,05,25,15,50,23.20
2012,05,25,15,51,23.20
2012,05,25,15,52,23.30
2012,05,25,15,53,23.50
2012,05,25,15,54,23.60
2012,05,25,15,55,23.80
2012,05,25,15,56,24.00
2012,05,25,15,57,24.00
2012,05,25,15,58,23.70
2012,05,25,15,59,23.20
2012,05,25,16,00,22.80
2012,05,25,16,01,22.50
2012,05,25,16,02,22.10
2012,05,25,16,03,21.80
2012,05,25,16,04,21.70
2012,05,25,16,05,21.50
2012,05,25,16,06,21.20
2012,05,25,16,07,21.20
2012,05,25,16,08,21.10
2012,05,25,16,09,21.00
2012,05,25,16,10,21.10
2012,05,25,16,11,21.00
2012,05,25,16,12,21.00
2012,05,25,16,13,21.00
2012,05,25,16,14,21.00
2012,05,25,16,15,21.20
2012,05,25,16,16,21.30
2012,05,25,16,17,21.50
2012,05,25,16,18,21.60
2012,05,25,16,19,21.70
2012,05,25,16,20,21.80
2012,05,25,16,21,21.90
2012,05,25,16,22,22.00
2012,05,25,16,23,22.20
2012,05,25,16,24,22.20
2012,05,25,16,25,22.30
2012,05,25,16,26,22.40
2012,05,25,16,27,22.40
2012,05,25,16,28,22.50
2012,05,25,16,29,22.60
2012,05,25,16,30,22.60
2012,05,25,16,31,22.70
2012,05,25,16,32,22.80
2012,05,25,16,33,22.80
2012,05,25,16,34,22.90
2012,05,25,16,35,22.80
2012,05,25,16,36,22.80
2012,05,25,16,37,22.80
2012,05,25,16,38,22.80
2012,05,25,16,39,22.80
2012,05,25,16,40,22.80
2012,05,25,16,41,22.90
2012,05,25,16,42,22.90
2012,05,25,16,43,22.80
2012,05,25,16,44,22.70
2012,05,25,16,45,22.60
2012,05,25,16,46,22.50
2012,05,25,16,47,22.40
2012,05,25,16,48,22.30
2012,05,25,16,49,22.30
2012,05,25,16,50,22.30
2012,05,25,16,51,22.20
2012,05,25,16,52,22.10
2012,05,25,16,53,22.10
2012,05,25,16,54,22.10
2012,05,25,16,55,22.00
2012,05,25,16,56,22.00
2012,05,25,16,57,22.10
2012,05,25,16,58,22.10
2012,05,25,16,59,22.20
2012,05,25,17,00,22.30
2012,05,25,17,01,22.50
2012,05,25,17,02,22.60
2012,05,25,17,03,22.50
2012,05,25,17,04,22.40
2012,05,25,17,05,22.40
2012,05,25,17,06,22.30
2012,05,25,17,07,22.30
2012,05,25,17,08,22.30
2012,05,25,17,09,22.20
2012,05,25,17,10,22.20
2012,05,25,17,11,22.30
2012,05,25,17,12,22.30
2012,05,25,17,13,22.20
2012,05,25,17,14,22.00
2012,05,25,17,15,21.90
2012,05,25,17,16,21.60
2012,05,25,17,17,21.50
2012,05,25,17,18,21.40
2012,05,25,17,19,21.40
2012,05,25,17,20,21.30
2012,05,25,17,21,21.30
2012,05,25,17,22,21.30
2012,05,25,17,23,21.40
2012,05,25,17,24,21.50
2012,05,25,17,25,21.60
2012,05,25,17,26,21.60
2012,05,25,17,27,21.60
2012,05,25,17,28,21.60
2012,05,25,17,29,21.60
2012,05,25,17,30,21.60
2012,05,25,17,31,21.70
2012,05,25,17,32,21.90
2012,05,25,17,33,22.00
2012,05,25,17,34,22.10
2012,05,25,17,35,22.10
2012,05,25,17,36,22.10
2012,05,25,17,37,22.10
2012,05,25,17,38,22.10
2012,05,25,17,39,22.10